^^
Your Local Weather - Clay, NY Station Historical Data
Daily Summary for January 9, 2018 Units:  English    Metric   Both
« Previous Day
Next Day »
Daily Weekly Monthly Yearly Custom
  High: Low: Average:
Temperature: 36.4 °F 30.4 °F 33.3 °F
Dew Point: 29.4 °F 22.5 °F 27 °F
Humidity: 89% 68% 78%
Wind Speed: 6.0mph 0.0mph 3.1mph
Wind Gust: 13.0mph - -
Wind- - WNW
Pressure: 30.29 in 29.88 in -
Precipitation: 0.05 in    
Historical Graphs
 
 
Tabular Data for January 9, 2018
Time Temperature Dew Point Pressure Wind Wind Speed Wind Gust Humidity Rainfall Rate (Hourly) solar
00:02 36.0 °F 29.2 °F 29.88 in WSW 3.0 mph 5.0 mph 76% 0.00 in 0 W/m2
00:06 36.0 °F 29.2 °F 29.88 in WSW 4.0 mph 13.0 mph 76% 0.00 in 0 W/m2
00:08 36.1 °F 28.9 °F 29.88 in SW 5.0 mph 13.0 mph 75% 0.00 in 0 W/m2
00:18 36.2 °F 28.7 °F 29.88 in SW 5.0 mph 7.0 mph 74% 0.00 in 0 W/m2
00:20 36.2 °F 28.7 °F 29.88 in NW 5.0 mph 5.0 mph 74% 0.00 in 0 W/m2
00:24 36.2 °F 28.7 °F 29.88 in West 4.0 mph 6.0 mph 74% 0.00 in 0 W/m2
00:30 36.3 °F 28.5 °F 29.88 in SSW 5.0 mph 7.0 mph 73% 0.00 in 0 W/m2
00:34 36.3 °F 28.5 °F 29.88 in SW 4.0 mph 7.0 mph 73% 0.00 in 0 W/m2
00:36 36.3 °F 28.5 °F 29.88 in WNW 5.0 mph 7.0 mph 73% 0.00 in 0 W/m2
00:38 36.3 °F 28.5 °F 29.88 in West 5.0 mph 7.0 mph 73% 0.00 in 0 W/m2
00:44 36.4 °F 28.6 °F 29.88 in WNW 6.0 mph 6.0 mph 73% 0.00 in 0 W/m2
00:52 36.2 °F 28.7 °F 29.89 in WSW 5.0 mph 6.0 mph 74% 0.00 in 0 W/m2
00:56 36.1 °F 28.9 °F 29.89 in West 5.0 mph 6.0 mph 75% 0.00 in 0 W/m2
00:58 36.0 °F 28.8 °F 29.89 in West 5.0 mph 6.0 mph 75% 0.00 in 0 W/m2
01:00 35.9 °F 28.7 °F 29.89 in WNW 5.0 mph 5.0 mph 75% 0.00 in 0 W/m2
01:08 35.7 °F 29.2 °F 29.90 in WNW 4.0 mph 5.0 mph 77% 0.00 in 0 W/m2
01:12 35.6 °F 29.1 °F 29.90 in West 4.0 mph 4.0 mph 77% 0.00 in 0 W/m2
01:14 35.6 °F 29.1 °F 29.90 in WSW 4.0 mph 4.0 mph 77% 0.00 in 0 W/m2
01:18 35.5 °F 29.3 °F 29.90 in West 3.0 mph 4.0 mph 78% 0.00 in 0 W/m2
01:20 35.5 °F 29.3 °F 29.90 in West 3.0 mph 4.0 mph 78% 0.00 in 0 W/m2
01:22 35.5 °F 29.3 °F 29.90 in West 3.0 mph 6.0 mph 78% 0.00 in 0 W/m2
01:28 35.6 °F 29.4 °F 29.90 in West 4.0 mph 6.0 mph 78% 0.00 in 0 W/m2
01:32 35.5 °F 29.3 °F 29.90 in WSW 3.0 mph 4.0 mph 78% 0.00 in 0 W/m2
01:34 35.5 °F 29.3 °F 29.90 in West 3.0 mph 6.0 mph 78% 0.00 in 0 W/m2
01:40 35.5 °F 29.3 °F 29.90 in WSW 3.0 mph 3.0 mph 78% 0.00 in 0 W/m2
01:44 35.5 °F 29.3 °F 29.90 in WNW 4.0 mph 4.0 mph 78% 0.00 in 0 W/m2
01:50 35.5 °F 29.3 °F 29.90 in WNW 5.0 mph 8.0 mph 78% 0.00 in 0 W/m2
01:54 35.4 °F 29.2 °F 29.91 in West 5.0 mph 8.0 mph 78% 0.00 in 0 W/m2
01:58 35.4 °F 29.2 °F 29.91 in WNW 4.0 mph 8.0 mph 78% 0.00 in 0 W/m2
02:04 35.3 °F 29.1 °F 29.91 in West 4.0 mph 6.0 mph 78% 0.00 in 0 W/m2
02:06 35.3 °F 29.1 °F 29.91 in West 4.0 mph 6.0 mph 78% 0.00 in 0 W/m2
02:10 35.3 °F 29.1 °F 29.91 in West 5.0 mph 5.0 mph 78% 0.00 in 0 W/m2
02:18 35.0 °F 29.1 °F 29.91 in West 4.0 mph 5.0 mph 79% 0.00 in 0 W/m2
02:22 34.9 °F 29.0 °F 29.92 in West 3.0 mph 5.0 mph 79% 0.00 in 0 W/m2
02:24 34.9 °F 29.0 °F 29.92 in West 3.0 mph 5.0 mph 79% 0.00 in 0 W/m2
02:28 34.9 °F 29.0 °F 29.92 in WSW 4.0 mph 5.0 mph 79% 0.00 in 0 W/m2
02:30 34.9 °F 29.0 °F 29.93 in West 4.0 mph 5.0 mph 79% 0.00 in 0 W/m2
02:34 34.9 °F 29.0 °F 29.93 in WNW 5.0 mph 5.0 mph 79% 0.00 in 0 W/m2
02:36 34.9 °F 29.0 °F 29.93 in WNW 5.0 mph 5.0 mph 79% 0.00 in 0 W/m2
02:46 34.6 °F 28.8 °F 29.93 in WNW 5.0 mph 6.0 mph 79% 0.00 in 0 W/m2
02:50 34.6 °F 29.1 °F 29.93 in WSW 5.0 mph 5.0 mph 80% 0.00 in 0 W/m2
02:52 34.5 °F 29.0 °F 29.93 in WNW 5.0 mph 6.0 mph 80% 0.00 in 0 W/m2
03:02 34.3 °F 28.8 °F 29.94 in WNW 3.0 mph 3.0 mph 80% 0.00 in 0 W/m2
03:04 34.3 °F 28.8 °F 29.94 in West 3.0 mph 3.0 mph 80% 0.00 in 0 W/m2
03:06 34.3 °F 28.8 °F 29.93 in WNW 3.0 mph 3.0 mph 80% 0.00 in 0 W/m2
03:08 34.4 °F 28.9 °F 29.93 in WSW 4.0 mph 4.0 mph 80% 0.00 in 0 W/m2
03:10 34.4 °F 28.9 °F 29.94 in West 4.0 mph 4.0 mph 80% 0.00 in 0 W/m2
03:12 34.4 °F 28.6 °F 29.93 in WNW 4.0 mph 4.0 mph 79% 0.00 in 0 W/m2
03:16 34.4 °F 28.6 °F 29.94 in WSW 3.0 mph 4.0 mph 79% 0.00 in 0 W/m2
03:20 34.4 °F 28.6 °F 29.94 in West 3.0 mph 3.0 mph 79% 0.00 in 0 W/m2
03:28 34.5 °F 28.3 °F 29.95 in WNW 3.0 mph 4.0 mph 78% 0.00 in 0 W/m2
03:34 34.5 °F 28.0 °F 29.95 in NW 3.0 mph 5.0 mph 77% 0.00 in 0 W/m2
03:44 34.4 °F 27.9 °F 29.95 in WNW 3.0 mph 5.0 mph 77% 0.00 in 0 W/m2
03:46 34.4 °F 27.9 °F 29.95 in West 4.0 mph 5.0 mph 77% 0.00 in 0 W/m2
03:48 34.4 °F 27.9 °F 29.95 in West 4.0 mph 5.0 mph 77% 0.00 in 0 W/m2
03:52 34.4 °F 27.6 °F 29.95 in West 4.0 mph 9.0 mph 76% 0.00 in 0 W/m2
03:54 34.5 °F 27.7 °F 29.95 in WNW 4.0 mph 9.0 mph 76% 0.00 in 0 W/m2
03:58 34.5 °F 27.7 °F 29.95 in WNW 4.0 mph 9.0 mph 76% 0.00 in 0 W/m2
04:00 34.5 °F 27.4 °F 29.95 in NW 4.0 mph 5.0 mph 75% 0.00 in 0 W/m2
04:06 34.5 °F 27.4 °F 29.94 in WNW 4.0 mph 6.0 mph 75% 0.00 in 0 W/m2
04:10 34.5 °F 27.4 °F 29.94 in WNW 4.0 mph 4.0 mph 75% 0.00 in 0 W/m2
04:18 34.5 °F 27.1 °F 29.95 in WNW 4.0 mph 6.0 mph 74% 0.00 in 0 W/m2
04:22 34.5 °F 27.1 °F 29.96 in WNW 3.0 mph 4.0 mph 74% 0.00 in 0 W/m2
04:24 34.5 °F 27.1 °F 29.96 in WNW 3.0 mph 4.0 mph 74% 0.00 in 0 W/m2
04:26 34.4 °F 27.0 °F 29.96 in WNW 2.0 mph 4.0 mph 74% 0.00 in 0 W/m2
04:28 34.4 °F 26.6 °F 29.96 in West 2.0 mph 4.0 mph 73% 0.00 in 0 W/m2
04:32 34.4 °F 26.6 °F 29.96 in West 2.0 mph 2.0 mph 73% 0.00 in 0 W/m2
04:34 34.4 °F 26.6 °F 29.96 in WSW 3.0 mph 3.0 mph 73% 0.00 in 0 W/m2
04:36 34.4 °F 26.6 °F 29.96 in WNW 3.0 mph 3.0 mph 73% 0.00 in 0 W/m2
04:38 34.4 °F 27.0 °F 29.96 in West 3.0 mph 4.0 mph 74% 0.00 in 0 W/m2
04:42 34.4 °F 27.0 °F 29.96 in West 3.0 mph 7.0 mph 74% 0.00 in 0 W/m2
04:44 34.3 °F 26.9 °F 29.96 in WNW 3.0 mph 7.0 mph 74% 0.00 in 0 W/m2
04:48 34.3 °F 26.9 °F 29.97 in West 4.0 mph 7.0 mph 74% 0.00 in 0 W/m2
04:54 34.3 °F 26.9 °F 29.97 in West 4.0 mph 7.0 mph 74% 0.00 in 0 W/m2
05:06 34.2 °F 27.1 °F 29.98 in WSW 3.0 mph 6.0 mph 75% 0.00 in 0 W/m2
05:08 34.2 °F 27.1 °F 29.98 in NW 3.0 mph 6.0 mph 75% 0.00 in 0 W/m2
05:10 34.2 °F 27.1 °F 29.98 in West 3.0 mph 3.0 mph 75% 0.00 in 0 W/m2
05:12 34.2 °F 27.1 °F 29.98 in WSW 3.0 mph 3.0 mph 75% 0.00 in 0 W/m2
05:14 34.2 °F 27.1 °F 29.98 in WNW 3.0 mph 7.0 mph 75% 0.00 in 0 W/m2
05:16 34.2 °F 27.1 °F 29.98 in West 3.0 mph 7.0 mph 75% 0.00 in 0 W/m2
05:22 34.2 °F 27.1 °F 29.99 in West 3.0 mph 3.0 mph 75% 0.00 in 0 W/m2
05:28 34.1 °F 27.0 °F 29.99 in WNW 3.0 mph 6.0 mph 75% 0.00 in 0 W/m2
05:36 34.0 °F 26.9 °F 29.99 in NW 3.0 mph 4.0 mph 75% 0.00 in 0 W/m2
05:38 33.9 °F 26.8 °F 29.99 in West 3.0 mph 10.0 mph 75% 0.00 in 0 W/m2
05:40 33.9 °F 27.1 °F 29.99 in West 3.0 mph 5.0 mph 76% 0.00 in 0 W/m2
05:44 33.6 °F 26.8 °F 29.99 in WNW 4.0 mph 6.0 mph 76% 0.00 in 0 W/m2
05:52 33.6 °F 26.8 °F 30.00 in WNW 4.0 mph 6.0 mph 76% 0.00 in 0 W/m2
06:00 33.9 °F 26.5 °F 30.00 in WSW 4.0 mph 5.0 mph 74% 0.00 in 0 W/m2
06:10 34.1 °F 26.0 °F 30.00 in NW 4.0 mph 5.0 mph 72% 0.00 in 0 W/m2
06:18 34.1 °F 25.7 °F 30.01 in WNW 4.0 mph 6.0 mph 71% 0.00 in 0 W/m2
06:20 34.1 °F 25.7 °F 30.01 in WNW 3.0 mph 5.0 mph 71% 0.00 in 0 W/m2
06:26 34.1 °F 25.7 °F 30.01 in WNW 4.0 mph 8.0 mph 71% 0.00 in 0 W/m2
06:28 34.1 °F 25.7 °F 30.01 in West 4.0 mph 8.0 mph 71% 0.00 in 0 W/m2
06:32 34.1 °F 26.0 °F 30.01 in WNW 4.0 mph 4.0 mph 72% 0.00 in 0 W/m2
06:38 33.8 °F 26.1 °F 30.02 in WNW 4.0 mph 8.0 mph 73% 0.00 in 0 W/m2
06:44 32.8 °F 26.7 °F 30.02 in NW 5.0 mph 7.0 mph 78% 0.00 in 0 W/m2
06:48 32.4 °F 26.9 °F 30.02 in NNW 4.0 mph 7.0 mph 80% 0.00 in 0 W/m2
06:50 32.3 °F 26.8 °F 30.02 in NNW 3.0 mph 3.0 mph 80% 0.00 in 0 W/m2
06:56 32.2 °F 27.0 °F 30.03 in NNW 2.0 mph 3.0 mph 81% 0.00 in 0 W/m2
07:00 32.1 °F 27.2 °F 30.03 in NW 2.0 mph 2.0 mph 82% 0.00 in 0 W/m2
07:03 32.0 °F 27.1 °F 30.04 in WNW 2.0 mph 4.0 mph 82% 0.00 in 0 W/m2
07:09 31.9 °F 27.3 °F 30.04 in WNW 2.0 mph 4.0 mph 83% 0.00 in 0 W/m2
07:12 31.8 °F 27.5 °F 30.04 in WNW 2.0 mph 4.0 mph 84% 0.00 in 0 W/m2
07:14 31.8 °F 27.5 °F 30.04 in WNW 3.0 mph 6.0 mph 84% 0.00 in 0 W/m2
07:22 31.7 °F 27.7 °F 30.04 in WNW 4.0 mph 4.0 mph 85% 0.00 in 0 W/m2
07:26 31.6 °F 27.9 °F 30.05 in WNW 3.0 mph 4.0 mph 86% 0.00 in 0 W/m2
07:28 31.4 °F 27.7 °F 30.05 in WNW 3.0 mph 4.0 mph 86% 0.00 in 0 W/m2
07:40 31.3 °F 28.2 °F 30.05 in WSW 3.0 mph 3.0 mph 88% 0.00 in 0 W/m2
07:46 31.3 °F 28.2 °F 30.05 in West 3.0 mph 7.0 mph 88% 0.00 in 0 W/m2
07:48 31.3 °F 28.2 °F 30.05 in West 3.0 mph 7.0 mph 88% 0.00 in 0 W/m2
07:50 31.3 °F 28.2 °F 30.05 in West 3.0 mph 3.0 mph 88% 0.00 in 0 W/m2
07:52 31.3 °F 28.4 °F 30.05 in NW 2.0 mph 3.0 mph 89% 0.00 in 0 W/m2
07:56 31.2 °F 28.3 °F 30.05 in WNW 2.0 mph 3.0 mph 89% 0.00 in 5 W/m2
08:00 31.2 °F 28.3 °F 30.05 in NNW 2.0 mph 3.0 mph 89% 0.00 in 5 W/m2
08:03 31.2 °F 28.3 °F 30.05 in West 2.0 mph 3.0 mph 89% 0.00 in 5 W/m2
08:04 31.2 °F 28.3 °F 30.05 in WSW 2.0 mph 6.0 mph 89% 0.00 in 7 W/m2
08:06 31.2 °F 28.3 °F 30.05 in WSW 2.0 mph 6.0 mph 89% 0.00 in 7 W/m2
08:08 31.2 °F 28.3 °F 30.05 in WNW 2.0 mph 6.0 mph 89% 0.00 in 9 W/m2
08:18 31.3 °F 28.4 °F 30.06 in WSW 2.0 mph 4.0 mph 89% 0.00 in 12 W/m2
08:22 31.3 °F 28.4 °F 30.06 in West 2.0 mph 3.0 mph 89% 0.00 in 14 W/m2
08:26 31.3 °F 28.4 °F 30.07 in WNW 2.0 mph 3.0 mph 89% 0.00 in 16 W/m2
08:28 31.3 °F 28.4 °F 30.07 in West 2.0 mph 3.0 mph 89% 0.00 in 14 W/m2
08:30 31.3 °F 28.4 °F 30.07 in West 2.0 mph 2.0 mph 89% 0.00 in 18 W/m2
08:38 31.4 °F 28.5 °F 30.07 in NW 2.0 mph 3.0 mph 89% 0.00 in 26 W/m2
08:42 31.4 °F 28.5 °F 30.07 in NW 2.0 mph 3.0 mph 89% 0.00 in 26 W/m2
08:48 31.5 °F 28.6 °F 30.08 in NW 2.0 mph 3.0 mph 89% 0.00 in 33 W/m2
08:50 31.6 °F 28.5 °F 30.08 in NW 2.0 mph 2.0 mph 88% 0.00 in 39 W/m2
08:56 31.6 °F 28.5 °F 30.08 in WNW 1.0 mph 2.0 mph 88% 0.00 in 40 W/m2
08:58 31.6 °F 28.5 °F 30.08 in WNW 2.0 mph 2.0 mph 88% 0.00 in 42 W/m2
09:00 31.7 °F 28.6 °F 30.08 in WNW 2.0 mph 2.0 mph 88% 0.00 in 42 W/m2
09:02 31.7 °F 28.6 °F 30.08 in WNW 2.0 mph 3.0 mph 88% 0.00 in 42 W/m2
09:08 31.8 °F 28.7 °F 30.08 in WNW 1.0 mph 3.0 mph 88% 0.00 in 39 W/m2
09:10 31.9 °F 28.8 °F 30.08 in WNW 1.0 mph 3.0 mph 88% 0.00 in 33 W/m2
09:18 32.0 °F 28.6 °F 30.10 in WNW 2.0 mph 4.0 mph 87% 0.00 in 26 W/m2
09:20 32.1 °F 28.7 °F 30.10 in WNW 2.0 mph 2.0 mph 87% 0.00 in 25 W/m2
09:22 32.1 °F 28.7 °F 30.10 in WNW 2.0 mph 2.0 mph 87% 0.00 in 19 W/m2
09:24 32.1 °F 28.7 °F 30.10 in WNW 2.0 mph 2.0 mph 87% 0.00 in 19 W/m2
09:30 32.1 °F 28.7 °F 30.10 in WNW 1.0 mph 1.0 mph 87% 0.00 in 21 W/m2
09:34 32.1 °F 28.7 °F 30.10 in WNW 1.0 mph 1.0 mph 87% 0.00 in 26 W/m2
09:38 32.1 °F 28.7 °F 30.11 in West 2.0 mph 2.0 mph 87% 0.00 in 28 W/m2
09:42 32.1 °F 28.7 °F 30.11 in West 2.0 mph 3.0 mph 87% 0.00 in 33 W/m2
09:44 32.2 °F 28.8 °F 30.11 in West 2.0 mph 3.0 mph 87% 0.00 in 35 W/m2
09:52 32.2 °F 28.8 °F 30.11 in NW 2.0 mph 3.0 mph 87% 0.00 in 40 W/m2
09:54 32.2 °F 28.8 °F 30.12 in NW 2.0 mph 3.0 mph 87% 0.00 in 37 W/m2
09:58 32.3 °F 28.9 °F 30.12 in WNW 1.0 mph 3.0 mph 87% 0.00 in 33 W/m2
10:08 32.4 °F 28.7 °F 30.12 in WNW 2.0 mph 2.0 mph 86% 0.00 in 42 W/m2
10:14 32.4 °F 28.7 °F 30.13 in West 2.0 mph 6.0 mph 86% 0.00 in 40 W/m2
10:16 32.4 °F 28.7 °F 30.13 in WNW 2.0 mph 6.0 mph 86% 0.00 in 49 W/m2
10:18 32.4 °F 28.7 °F 30.13 in WNW 3.0 mph 6.0 mph 86% 0.00 in 74 W/m2
10:22 32.5 °F 28.5 °F 30.13 in WNW 3.0 mph 5.0 mph 85% 0.00 in 107 W/m2
10:24 32.5 °F 28.5 °F 30.13 in NW 3.0 mph 5.0 mph 85% 0.00 in 109 W/m2
10:30 32.5 °F 27.3 °F 30.13 in West 3.0 mph 7.0 mph 81% 0.00 in 102 W/m2
10:32 32.5 °F 26.7 °F 30.13 in NW 4.0 mph 7.0 mph 79% 0.00 in 100 W/m2
10:40 32.6 °F 25.6 °F 30.13 in WNW 5.0 mph 5.0 mph 75% 0.00 in 116 W/m2
10:42 32.7 °F 25.3 °F 30.14 in NW 5.0 mph 8.0 mph 74% 0.00 in 114 W/m2
10:44 32.7 °F 25.3 °F 30.14 in WNW 5.0 mph 8.0 mph 74% 0.00 in 111 W/m2
10:58 32.8 °F 24.8 °F 30.14 in WNW 4.0 mph 5.0 mph 72% 0.00 in 109 W/m2
11:02 32.8 °F 24.8 °F 30.14 in WNW 3.0 mph 7.0 mph 72% 0.00 in 109 W/m2
11:06 32.8 °F 24.4 °F 30.15 in NW 4.0 mph 7.0 mph 71% 0.00 in 104 W/m2
11:08 32.7 °F 24.3 °F 30.15 in NW 4.0 mph 7.0 mph 71% 0.00 in 100 W/m2
11:10 32.7 °F 24.3 °F 30.15 in NW 4.0 mph 8.0 mph 71% 0.00 in 95 W/m2
11:16 32.7 °F 24.0 °F 30.15 in WNW 5.0 mph 9.0 mph 70% 0.00 in 102 W/m2
11:18 32.7 °F 24.3 °F 30.15 in WNW 4.0 mph 9.0 mph 71% 0.00 in 104 W/m2
11:20 32.7 °F 24.3 °F 30.15 in WNW 4.0 mph 6.0 mph 71% 0.00 in 97 W/m2
11:24 32.7 °F 24.3 °F 30.15 in WNW 4.0 mph 6.0 mph 71% 0.00 in 93 W/m2
11:26 32.7 °F 24.3 °F 30.15 in WNW 3.0 mph 6.0 mph 71% 0.00 in 97 W/m2
11:28 32.6 °F 24.2 °F 30.15 in WNW 3.0 mph 6.0 mph 71% 0.00 in 93 W/m2
11:30 32.7 °F 24.3 °F 30.15 in WNW 3.0 mph 3.0 mph 71% 0.00 in 90 W/m2
11:32 32.7 °F 24.3 °F 30.15 in WNW 3.0 mph 3.0 mph 71% 0.00 in 93 W/m2
11:36 32.6 °F 23.9 °F 30.15 in NNW 3.0 mph 5.0 mph 70% 0.00 in 95 W/m2
11:42 32.6 °F 24.2 °F 30.15 in NNW 3.0 mph 3.0 mph 71% 0.00 in 77 W/m2
11:46 32.5 °F 24.1 °F 30.15 in NW 3.0 mph 5.0 mph 71% 0.00 in 77 W/m2
11:50 32.3 °F 23.9 °F 30.15 in NW 3.0 mph 5.0 mph 71% 0.00 in 77 W/m2
11:52 32.2 °F 23.5 °F 30.15 in WNW 4.0 mph 8.0 mph 70% 0.00 in 76 W/m2
11:54 32.2 °F 23.5 °F 30.15 in NNW 4.0 mph 8.0 mph 70% 0.00 in 76 W/m2
12:10 31.9 °F 22.5 °F 30.15 in NW 4.0 mph 4.0 mph 68% 0.00 in 90 W/m2
12:20 31.9 °F 22.5 °F 30.15 in NW 3.0 mph 3.0 mph 68% 0.00 in 83 W/m2
12:22 31.9 °F 22.5 °F 30.15 in NW 3.0 mph 3.0 mph 68% 0.00 in 90 W/m2
12:24 31.9 °F 22.9 °F 30.16 in NW 2.0 mph 3.0 mph 69% 0.00 in 77 W/m2
12:28 31.9 °F 22.9 °F 30.16 in NW 2.0 mph 3.0 mph 69% 0.00 in 70 W/m2
12:30 31.8 °F 22.8 °F 30.16 in WNW 2.0 mph 3.0 mph 69% 0.00 in 72 W/m2
12:38 31.7 °F 22.7 °F 30.16 in WNW 3.0 mph 4.0 mph 69% 0.00 in 93 W/m2
13:30 31.6 °F 23.6 °F 30.17 in NNW 2.0 mph 2.0 mph 72% 0.00 in 67 W/m2
13:34 31.6 °F 23.6 °F 30.17 in West 2.0 mph 2.0 mph 72% 0.00 in 56 W/m2
13:36 31.6 °F 23.6 °F 30.17 in WNW 2.0 mph 5.0 mph 72% 0.00 in 54 W/m2
13:44 31.7 °F 23.7 °F 30.17 in NW 2.0 mph 2.0 mph 72% 0.00 in 76 W/m2
13:50 31.8 °F 24.1 °F 30.17 in NW 1.0 mph 1.0 mph 73% 0.00 in 81 W/m2
13:52 31.8 °F 23.8 °F 30.18 in NW 1.0 mph 2.0 mph 72% 0.00 in 81 W/m2
13:58 31.9 °F 23.6 °F 30.18 in WNW 2.0 mph 3.0 mph 71% 0.00 in 79 W/m2
14:04 32.1 °F 23.8 °F 30.18 in WNW 2.0 mph 3.0 mph 71% 0.00 in 74 W/m2
14:06 32.1 °F 23.8 °F 30.18 in WNW 2.0 mph 3.0 mph 71% 0.00 in 74 W/m2
14:08 32.1 °F 23.4 °F 30.18 in West 2.0 mph 3.0 mph 70% 0.00 in 69 W/m2
14:10 32.1 °F 23.4 °F 30.18 in West 2.0 mph 2.0 mph 70% 0.00 in 69 W/m2
14:26 32.3 °F 23.6 °F 30.18 in WNW 2.0 mph 5.0 mph 70% 0.00 in 58 W/m2
14:32 32.3 °F 23.6 °F 30.19 in NNW 2.0 mph 3.0 mph 70% 0.00 in 44 W/m2
14:38 32.3 °F 23.9 °F 30.19 in NW 2.0 mph 4.0 mph 71% 0.00 in 53 W/m2
14:40 32.3 °F 23.9 °F 30.19 in NW 2.0 mph 2.0 mph 71% 0.00 in 56 W/m2
14:42 32.2 °F 23.8 °F 30.19 in NW 2.0 mph 5.0 mph 71% 0.00 in 53 W/m2
14:44 32.2 °F 23.8 °F 30.19 in WNW 3.0 mph 5.0 mph 71% 0.00 in 58 W/m2
14:46 32.2 °F 23.8 °F 30.19 in WNW 4.0 mph 5.0 mph 71% 0.00 in 58 W/m2
14:52 32.2 °F 23.8 °F 30.20 in NW 3.0 mph 5.0 mph 71% 0.00 in 53 W/m2
15:00 32.2 °F 23.8 °F 30.20 in NW 3.0 mph 3.0 mph 71% 0.00 in 35 W/m2
16:32 31.1 °F 24.7 °F 30.24 in WNW 2.0 mph 3.0 mph 77% 0.00 in 7 W/m2
16:50 31.2 °F 24.8 °F 30.26 in WNW 1.0 mph 2.0 mph 77% 0.00 in 0 W/m2
17:14 31.2 °F 24.8 °F 30.27 in WNW 1.0 mph 2.0 mph 77% 0.00 in 0 W/m2
17:22 31.1 °F 25.0 °F 30.27 in WNW 1.0 mph 1.0 mph 78% 0.00 in 0 W/m2
17:56 30.5 °F 25.7 °F 30.29 in WNW 1.0 mph 2.0 mph 82% 0.00 in 0 W/m2
18:04 30.4 °F 25.9 °F 30.29 in Calm   2.0 mph 83% 0.00 in 0 W/m2
Country Meadow, Clay, NY, USA
Compliments of Weather Underground - 2 mb